www.pogodaiklimat.ru

Погода и климат >> Архив погоды >> Россия >> Якутия >> Оймякон


АРХИВ ПОГОДЫ в Оймяконе

Время (UTC), дата Ветер
(напр.,м/с)
 
Видим.   Явления Облачность Т
(С)
Тd
(С)
f
(%)
Тe
(С)
Тes
(С)
Комфортность P
(гПа)
Po
(гПа)
Тmin
(С)
Tmax
(С)
R
(мм)
R24
(мм)
S
(см)
21 19.03 ЮЗ 1 50 км 1/0
[Ci fib]
-42.9 -45.5 75 -48 -48 опасность
обморожения
1035.5 928.5 -44.0 27
00 20.03 штиль 0 50 км ясно -31.4 -35.0 70 -31 -27 опасность
обморожения
1029.7 928.1 -44.3
03 20.03 С 1 50 км 3/0
[Ci fib]
-25.0 -29.6 65 -29 -23 прохладно 1026.4 927.5
06 20.03 С 2 50 км 1/0
[Ci fib]
-21.5 -27.2 60 -28 -26 очень
холодно
1024.3 927.0
09 20.03 СВ 1 50 км 1/0
[Ci fib]
-24.4 -30.0 60 -28 -28 по сезону 1026.1 927.5 -20.5
12 20.03 З 1 50 км 1/0
[Ci fib]
-35.4 -38.3 75 -40 -40 опасность
обморожения
1031.8 928.4
15 20.03 штиль 0 50 км 1/0
[Ci fib]
-39.9 -42.7 74 -40 -40 опасность
обморожения
1034.7 929.1
18 20.03 ЮЗ 1 50 км 3/0
[Ci fib]
-41.6 -44.3 75 -47 -47 опасность
обморожения
1035.6 929.3
21 20.03 ЮЗ 1 50 км 1/0
[Ci fib]
-43.2 -46.1 73 -49 -49 опасность
обморожения
1037.2 930.0 -43.9 27
00 21.03 З 1 50 км 1/0
[Ci fib]
-30.4 -34.1 70 -35 -31 опасность
обморожения
1031.3 929.9
03 21.03 штиль 0 50 км 1/0
[Ci fib]
-23.0 -28.7 60 -23 -17 по сезону 1026.6 928.6
06 21.03 С 1 50 км 1/0
[Ci fib]
-20.0 -25.8 60 -23 -21 прохладно 1024.3 927.6
09 21.03 С 2 50 км 1/0
[Ci fib]
-24.6 -30.1 60 -31 -31 опасность
обморожения
1025.9 927.4 -19.7
12 21.03 З 2 50 км 1/0
[Ci fib]
-34.9 -37.7 75 -43 -43 опасность
обморожения
1030.9 927.7
15 21.03 Ю 1 50 км 1/0
[Ci fib]
-39.4 -42.2 75 -45 -45 опасность
обморожения
1033.1 927.8
18 21.03 ЮЗ 1 50 км 6/0
[Ci fib]
-41.5 -44.3 74 -47 -47 опасность
обморожения
1034.1 927.9
21 21.03 З 1 50 км 10/0
[Cs]
-40.4 -43.2 74 -46 -45 опасность
обморожения
1033.7 928.0 -42.0 27
00 22.03 штиль 0 50 км 10/0
[Cs]
-30.4 -33.4 75 -30 -27 по сезону 1029.0 927.8
03 22.03 С 1 50 км слаб. снег 10/0
[Cs]
-24.5 -28.5 69 -28 -23 прохладно 1024.7 926.3
06 22.03 С 2 50 км {снег} 10/4 1000 м
[Sc Ac trans Cs]
-21.0 -25.9 65 -27 -26 очень
холодно
1021.5 924.6
09 22.03 ЮЗ 1 50 км 10/3 1000 м
[Sc Ac As Cs]
-21.2 -26.0 65 -24 -24 по сезону 1020.7 923.9 -20.0 0.0
12 22.03 З 1 10 км слаб. снег 10/0
[Ac trans Cs]
-26.4 -29.5 75 -30 -30 по сезону 1022.0 923.1
15 22.03 штиль 0 20 км слаб. снег 10/0
[Ac trans Cs]
-32.5 -34.8 80 -33 -33 опасность
обморожения
1023.4 922.0
18 22.03 штиль 0 10 км слаб. снег 10/0
[Ac trans Cs]
-32.6 -34.8 81 -33 -33 опасность
обморожения
1022.3 921.0
21 22.03 штиль 0 50 км {снег} 1/0
[Ci fib]
-31.7 -34.1 79 -32 -31 опасность
обморожения
1020.0 920.2 -34.7 0.2 27
00 23.03 штиль 0 50 км {снег} ясно -23.5 -27.5 70 -24 -19 по сезону 1016.2 918.9
03 23.03 штиль 0 50 км ясно -18.6 -23.5 65 -19 -12 по сезону 1012.2 917.1
06 23.03 СВ 1 50 км ясно -17.0 -22.9 60 -20 -17 по сезону 1009.9 915.5
09 23.03 штиль 0 50 км ясно -19.6 -24.5 65 -20 -20 по сезону 1010.6 915.3 -15.5
12 23.03 З 2 50 км 3/0
[Ci fib]
-28.3 -30.6 81 -36 -36 опасность
обморожения
1014.5 915.5
15 23.03 ЮЗ 1 50 км 1/0
[Ci fib]
-33.5 -35.3 84 -38 -38 опасность
обморожения
1016.7 915.5
18 23.03 штиль 0 50 км 1/0
[Ci fib]
-36.9 -39.1 80 -37 -37 опасность
обморожения
1018.6 915.8
21 23.03 З 1 50 км 1/0
[Ci fib]
-38.1 -40.3 80 -43 -43 опасность
обморожения
1019.2 940.3 -39.1 27
00 24.03 штиль 0 50 км 4/0
[Ci fib]
-26.4 -28.8 80 -26 -22 по сезону 1014.5 916.3
03 24.03 СВ 2 50 км 4/0
[Ci fib]
-20.4 -24.4 70 -26 -21 прохладно 1011.8 916.0
06 24.03 СВ 1 50 км 6/0
[Ci fib]
-17.2 -22.2 65 -20 -18 по сезону 1010.1 915.7
09 24.03 штиль 0 50 км 3/0
[Ci fib]
-18.6 -23.5 65 -19 -19 по сезону 1011.2 916.2 -16.4
12 24.03 штиль 0 50 км 4/0
[Ci fib]
-29.7 -32.1 80 -30 -30 по сезону 1016.9 917.3
15 24.03 штиль 0 50 км 6/0
[Ci fib]
-21.3 -33.6 32 -21 -21 тепло 1018.4 917.9
18 24.03 З 1 50 км 10/0
[Cs]
-31.5 -33.8 80 -36 -36 опасность
обморожения
1018.6 918.1
21 24.03 штиль 0 50 км слаб. снег 10/0
[Cs]
-31.2 -33.6 79 -31 -31 опасность
обморожения
1019.0 1008.6 -33.2 0.0 27
00 25.03 штиль 0 50 км слаб. снег 10/0
[Cs]
-22.8 -26.0 75 -23 -19 по сезону 1015.7 918.8
03 25.03 С 1 50 км {снег} 6/0
[Ci fib]
-17.9 -22.9 65 -21 -15 по сезону 1013.3 918.3
06 25.03 штиль 0 50 км {снег} 8/0
[Ci fib]
-12.5 -19.7 55 -13 -10 по сезону 1010.6 918.2
09 25.03 ЮВ 1 50 км 10/0
[Cs]
-16.0 -22.0 60 -19 -19 по сезону 1013.1 918.8 -11.2 0.0
12 25.03 ЮЗ 2 50 км 6/0
[Ci fib]
-26.0 -28.4 80 -33 -33 опасность
обморожения
1018.2 919.8
15 25.03 Ю 1 50 км 4/0
[Ci fib]
-30.3 -32.7 79 -34 -34 опасность
обморожения
1020.6 920.3
18 25.03 штиль 0 50 км 4/0
[Ci fib]
-33.8 -35.5 85 -34 -34 опасность
обморожения
1022.7 920.7
21 25.03 З 1 50 км 4/0
[Ci fib]
-37.2 -38.8 85 -42 -42 опасность
обморожения
1024.2 920.9 -38.2 27
00 26.03 штиль 0 50 км 4/0
[Ci fib]
-23.9 -27.1 75 -24 -19 по сезону 1018.6 920.9
03 26.03 СВ 2 50 км 4/0
[Ci fib]
-17.3 -21.5 70 -23 -18 по сезону 1013.9 919.2
06 26.03 СЗ 3 50 км 3/0
[Ci fib]
-11.6 -18.8 55 -18 -16 по сезону 1009.8 917.4
09 26.03 З 2 50 км 3/0
[Ac trans Ci fib]
-15.9 -21.9 60 -21 -21 по сезону 1010.5 916.5 -11.4
12 26.03 З 3 50 км 5/0
[Ac trans Ci fib]
-17.8 -22.8 65 -25 -25 по сезону 1010.6 916.0
15 26.03 З 1 50 км 5/0
[Ac trans Ci fib]
-18.8 -22.9 70 -22 -22 тепло 1010.3 915.4
18 26.03 ЮЗ 2 50 км 4/0
[Ci fib]
-26.4 -28.8 80 -33 -33 опасность
обморожения
1013.9 915.7

 

Местоположение метеостанции Оймякон (Якутия, Россия): широта 63.25 долгота 143.10 высота над уровнем моря 740 м.

В архиве по умолчанию представлена погода в Оймяконе за последнюю неделю. Архивные данные за месяц целиком и за предыдущие месяцы, начиная с января 2011 года, Вы можете получить, выбрав интересующий диапазон дат из раскрывающегося списка и нажав кнопку "Ввод!".


*Определитесь, кто Вы:
робот инопланетянин человек

Внимание! Время в таблицах - всемирное. Для получения местного времени необходимо прибавить поправку, которая равна 10 ч.

Смотрите также архив погоды в соседних городах и на ближайших метеорологических станциях:

Погода в Агаякане (Якутия, Россия) (71 км)
Погода в Юртах (Якутия, Россия) (110 км)
Погода в Делянкире (Якутия, Россия) (140 км)
Погода в Усть-Нере (Якутия, Россия) (142 км)
Погода в Восточной (Якутия, Россия) (175 км)
Погода в Сусумане (Магаданская область, Россия) (258 км)
Погода в Колымской (Магаданская область, Россия) (278 км)
Погода в Уеге (Хабаровский край, Россия) (282 км)
Погода в Теплом Ключе (Якутия, Россия) (322 км)
Погода в Ягодной (Магаданская область, Россия) (340 км)

Пояснения к столбцам:

Ветер - указаны скорость ветра в м/с - средняя за 10 мин, порывы в срок и между сроками (в фигурных скобках) и направление, откуда дует ветер: С - северный, СВ - северо-восточный, В - восточный, ЮВ - юго-восточный, Ю - южный, ЮЗ - юго-западный, З - западный, СЗ - северо-западный.
Видимость - горизонтальная дальность видимости в метрах или километрах. При видимости от 1 до 10 км при отсутствии осадков обычно наблюдается дымка, при ухудшении видимости до 1 км и менее - туман. В сухую погоду видимость может ухудшаться дымом, пылью или мглою.
Явления - указаны атмосферные явления, наблюдавшиеся в срок или в последний час перед сроком; фигурными скобками обозначены явления, наблюдавшиеся между сроками (за 1-3 часа до срока); квадратными скобками обозначены град или гололедные отложения с указанием их диаметра в мм.
Облачность - указаны через наклонную черту общая и нижняя облачность в баллах и высота нижней границы облаков в метрах; квадратными скобками обозначены формы облаков: Ci - перистые, Cs - перисто-слоистые, Cc - перисто-кучевые, Ac - высококучевые, As - высокослоистые, Sc - слоисто-кучевые, Ns - слоисто-дождевые, Cu - кучевые, Cb - кучево-дождевые. Подробнее классификацию облаков см. в Атласе облаков (PDF).
T - Температура воздуха - температура, измеренная на высоте 2 м над землей.
Td - Температура точки росы - температура, при понижении до которой содержащийся в воздухе водяной пар достигнет насыщения.
f - Относительная влажность воздуха - влажноcть воздуха, измеренная на высоте 2 м над землей.
Te - Эффективная температура - температура, которую ощущает одетый по сезону человек в тени. Характеристика душности погоды. При расчете учитывается влияние влажности воздуха и скорости ветра на теплоощущения человека.
Tes - Эффективная температура на солнце - температура, которую ощущает человек, с поправкой на солнечный нагрев. Характеристика знойности погоды. Зависит от высоты солнца над горизонтом, облачности и скорости ветра. Ночью, в пасмурную погоду, а также при ветре 12 м/с и более поправка равна нулю.
P - Атмосферное давление - приведенное к уровню моря атмосферное давление.
Po - Атмосферное давление - измеренное на уровне метеостанции атмосферное давление.
Tmin - Минимальная температура - минимум температуры воздуха на высоте 2 м над землей.
Tmax - Максимальная температура - максимум температуры воздуха на высоте 2 м над землей.
R - Количество осадков - Количество выпавших осадков за период времени, мм. При наведении курсора мыши на число - период времени, за который выпало указанное количество осадков.
R24 - Количество осадков - Количество выпавших осадков за 24 часа, мм.
S - Снежный покров - Высота снежного покрова, см. При наведении курсора мыши на число - состояние снежного покрова и степень покрытия местности в баллах.